QPF
0.09 0.09 0.10 0.12 0.13 0.13 0.15 0.16 0.14 0.14 0.16 0.15 0.11 0.08 0.08 0.09 0.10 0.11 0.17 0.19 0.18 0.16 0.17 0.14 0.08 0.05 0.03 0.02 0.01 0.01 0.01 0.01 0.01 0.00 0.00 0.00 0.00 0.00 0.00 0.00 0.00 0.00 0.00
0.17 0.16 0.15 0.15 0.13 0.13 0.17 0.17 0.17 0.18 0.18 0.17 0.14 0.12 0.12 0.13 0.14 0.13 0.15 0.17 0.19 0.18 0.16 0.15 0.11 0.06 0.04 0.03 0.02 0.01 0.01 0.01 0.01 0.00 0.00 0.00 0.01 0.00 0.00 0.00 0.00 0.00 0.00
0.22 0.23 0.21 0.20 0.17 0.17 0.17 0.19 0.22 0.22 0.17 0.14 0.12 0.12 0.13 0.13 0.13 0.12 0.14 0.17 0.16 0.21 0.21 0.15 0.13 0.10 0.06 0.04 0.02 0.02 0.01 0.01 0.01 0.01 0.00 0.00 0.01 0.01 0.00 0.00 0.00 0.00 0.00
0.22 0.23 0.21 0.17 0.16 0.17 0.17 0.18 0.17 0.18 0.17 0.15 0.12 0.10 0.12 0.15 0.16 0.14 0.15 0.18 0.17 0.19 0.20 0.15 0.14 0.12 0.09 0.07 0.04 0.03 0.02 0.02 0.01 0.01 0.01 0.01 0.01 0.01 0.01 0.01 0.00 0.00 0.00
0.18 0.19 0.19 0.18 0.17 0.17 0.16 0.16 0.19 0.19 0.17 0.15 0.15 0.14 0.15 0.16 0.16 0.17 0.20 0.18 0.20 0.20 0.17 0.13 0.15 0.14 0.12 0.10 0.08 0.05 0.04 0.03 0.02 0.01 0.02 0.02 0.02 0.01 0.01 0.01 0.01 0.01 0.01
0.17 0.16 0.15 0.16 0.15 0.18 0.19 0.20 0.24 0.25 0.22 0.20 0.18 0.15 0.14 0.13 0.14 0.15 0.16 0.20 0.24 0.21 0.21 0.19 0.13 0.11 0.11 0.09 0.09 0.08 0.07 0.06 0.04 0.03 0.03 0.02 0.02 0.02 0.01 0.01 0.01 0.01 0.01
0.10 0.10 0.10 0.12 0.13 0.12 0.12 0.13 0.15 0.19 0.20 0.22 0.19 0.16 0.16 0.12 0.13 0.12 0.10 0.15 0.19 0.24 0.23 0.18 0.16 0.13 0.11 0.10 0.08 0.08 0.08 0.06 0.06 0.05 0.04 0.03 0.04 0.03 0.02 0.02 0.01 0.01 0.01
0.04 0.05 0.06 0.07 0.08 0.08 0.11 0.12 0.13 0.14 0.15 0.19 0.22 0.21 0.15 0.10 0.08 0.10 0.10 0.09 0.11 0.14 0.17 0.17 0.16 0.17 0.16 0.13 0.08 0.07 0.07 0.07 0.07 0.06 0.05 0.04 0.04 0.03 0.02 0.01 0.01 0.00 0.01
0.01 0.03 0.07 0.12 0.12 0.09 0.12 0.12 0.12 0.12 0.14 0.17 0.21 0.25 0.21 0.13 0.08 0.07 0.07 0.06 0.06 0.06 0.08 0.09 0.11 0.12 0.10 0.11 0.07 0.05 0.06 0.05 0.06 0.07 0.06 0.05 0.04 0.02 0.01 0.02 0.02 0.01 0.01
0.01 0.02 0.06 0.08 0.10 0.12 0.15 0.13 0.11 0.11 0.15 0.17 0.19 0.21 0.20 0.18 0.11 0.09 0.08 0.07 0.06 0.05 0.04 0.05 0.07 0.09 0.08 0.06 0.06 0.04 0.04 0.04 0.04 0.06 0.06 0.05 0.04 0.02 0.01 0.02 0.03 0.03 0.02
0.01 0.01 0.01 0.02 0.03 0.04 0.06 0.08 0.09 0.09 0.11 0.15 0.18 0.19 0.18 0.16 0.11 0.09 0.08 0.08 0.08 0.06 0.04 0.04 0.05 0.06 0.08 0.07 0.07 0.05 0.05 0.03 0.02 0.04 0.05 0.06 0.05 0.04 0.03 0.02 0.04 0.05 0.04
0.01 0.01 0.01 0.01 0.01 0.02 0.03 0.04 0.09 0.08 0.08 0.10 0.14 0.18 0.18 0.16 0.12 0.10 0.07 0.06 0.08 0.07 0.07 0.05 0.05 0.06 0.08 0.08 0.05 0.05 0.04 0.04 0.02 0.02 0.03 0.04 0.05 0.05 0.04 0.03 0.05 0.07 0.06
0.01 0.01 0.01 0.01 0.01 0.02 0.02 0.03 0.06 0.08 0.07 0.08 0.11 0.16 0.18 0.17 0.15 0.10 0.07 0.06 0.07 0.07 0.07 0.07 0.05 0.06 0.05 0.05 0.04 0.04 0.03 0.03 0.03 0.02 0.02 0.02 0.02 0.03 0.03 0.03 0.05 0.07 0.10
0.00 0.00 0.00 0.00 0.01 0.02 0.02 0.02 0.02 0.04 0.05 0.06 0.08 0.10 0.13 0.15 0.17 0.16 0.11 0.09 0.09 0.09 0.09 0.07 0.07 0.06 0.05 0.05 0.05 0.04 0.03 0.02 0.02 0.02 0.02 0.01 0.01 0.02 0.01 0.01 0.02 0.03 0.05
0.00 0.00 0.00 0.00 0.01 0.01 0.01 0.01 0.01 0.01 0.02 0.03 0.04 0.06 0.08 0.09 0.12 0.16 0.15 0.12 0.11 0.13 0.13 0.09 0.07 0.06 0.06 0.06 0.06 0.05 0.04 0.03 0.02 0.02 0.02 0.01 0.01 0.01 0.01 0.01 0.01 0.02 0.02
0.00 0.00 0.00 0.00 0.00 0.00 0.00 0.01 0.01 0.01 0.01 0.02 0.02 0.03 0.05 0.05 0.07 0.12 0.15 0.16 0.14 0.12 0.11 0.09 0.09 0.07 0.10 0.11 0.08 0.04 0.04 0.04 0.02 0.02 0.01 0.01 0.01 0.01 0.01 0.01 0.01 0.01 0.01
0.00 0.00 0.00 0.00 0.00 0.00 0.00 0.01 0.01 0.01 0.01 0.01 0.01 0.02 0.02 0.03 0.04 0.07 0.12 0.15 0.17 0.16 0.13 0.09 0.11 0.13 0.13 0.13 0.10 0.08 0.06 0.04 0.02 0.01 0.01 0.01 0.00 0.00 0.00 0.00 0.01 0.00 0.00
0.00 0.00 0.00 0.01 0.01 0.01 0.01 0.01 0.01 0.01 0.01 0.01 0.01 0.01 0.01 0.02 0.03 0.05 0.08 0.11 0.13 0.15 0.17 0.15 0.13 0.14 0.15 0.15 0.13 0.10 0.08 0.05 0.02 0.02 0.01 0.01 0.00 0.00 0.00 0.00 0.00 0.00 0.00
0.00 0.00 0.01 0.01 0.01 0.01 0.02 0.02 0.01 0.01 0.01 0.01 0.01 0.01 0.01 0.01 0.02 0.05 0.07 0.09 0.12 0.13 0.13 0.14 0.15 0.13 0.13 0.15 0.17 0.14 0.09 0.07 0.04 0.03 0.02 0.01 0.01 0.00 0.00 0.00 0.00 0.00 0.00
0.01 0.01 0.01 0.01 0.01 0.02 0.02 0.02 0.02 0.01 0.01 0.01 0.01 0.01 0.01 0.01 0.01 0.03 0.05 0.08 0.11 0.13 0.14 0.15 0.16 0.16 0.14 0.14 0.17 0.15 0.12 0.08 0.05 0.04 0.02 0.01 0.01 0.00 0.00 0.00 0.00 0.00 0.01
0.00 0.01 0.01 0.01 0.01 0.02 0.02 0.02 0.02 0.02 0.01 0.01 0.01 0.01 0.01 0.01 0.01 0.02 0.03 0.05 0.09 0.11 0.14 0.19 0.20 0.19 0.18 0.17 0.13 0.14 0.12 0.08 0.06 0.04 0.03 0.02 0.01 0.00 0.00 0.00 0.00 0.01 0.01
0.00 0.00 0.00 0.01 0.01 0.01 0.01 0.02 0.03 0.03 0.03 0.02 0.02 0.01 0.01 0.01 0.01 0.02 0.02 0.05 0.07 0.10 0.14 0.19 0.24 0.22 0.18 0.17 0.15 0.14 0.13 0.09 0.05 0.03 0.02 0.02 0.02 0.01 0.01 0.00 0.01 0.01 0.01
0.00 0.00 0.00 0.01 0.01 0.01 0.01 0.02 0.03 0.04 0.04 0.04 0.03 0.02 0.01 0.01 0.01 0.02 0.02 0.03 0.07 0.08 0.10 0.15 0.22 0.24 0.23 0.19 0.19 0.15 0.13 0.11 0.07 0.04 0.03 0.02 0.02 0.01 0.01 0.01 0.01 0.01 0.01
0.00 0.00 0.01 0.01 0.01 0.01 0.01 0.02 0.03 0.04 0.05 0.05 0.04 0.03 0.02 0.02 0.02 0.02 0.02 0.02 0.03 0.07 0.08 0.08 0.12 0.19 0.23 0.24 0.21 0.18 0.16 0.15 0.12 0.09 0.06 0.03 0.02 0.01 0.01 0.01 0.01 0.01 0.01
0.01 0.01 0.01 0.01 0.01 0.01 0.01 0.02 0.03 0.03 0.03 0.05 0.04 0.04 0.04 0.02 0.02 0.02 0.02 0.02 0.02 0.04 0.07 0.07 0.08 0.12 0.17 0.23 0.25 0.22 0.16 0.15 0.13 0.09 0.07 0.05 0.03 0.01 0.01 0.01 0.01 0.01 0.01
0.01 0.01 0.01 0.02 0.01 0.02 0.02 0.02 0.03 0.03 0.03 0.04 0.05 0.04 0.05 0.04 0.02 0.03 0.03 0.03 0.02 0.02 0.05 0.07 0.06 0.08 0.12 0.15 0.19 0.22 0.17 0.14 0.13 0.12 0.08 0.06 0.04 0.02 0.01 0.01 0.01 0.01 0.01
MSLP
1013.04 1013.12 1013.14 1013.13 1013.12 1013.14 1013.19 1013.29 1013.41 1013.54 1013.67 1013.78 1013.87 1013.94 1014.00 1014.07 1014.14 1014.23 1014.33 1014.45 1014.59 1014.75 1014.95 1015.20 1015.50 1015.87 1016.29 1016.76 1017.25 1017.74 1018.20 1018.62 1019.00 1019.34 1019.65 1019.95 1020.26 1020.56 1020.85 1021.14 1021.40 1021.63 1021.83
1012.80 1012.87 1012.90 1012.90 1012.91 1012.92 1012.95 1013.00 1013.07 1013.14 1013.21 1013.27 1013.32 1013.38 1013.43 1013.49 1013.56 1013.65 1013.74 1013.85 1013.98 1014.14 1014.34 1014.61 1014.94 1015.34 1015.79 1016.28 1016.79 1017.29 1017.77 1018.21 1018.61 1018.99 1019.35 1019.70 1020.05 1020.40 1020.73 1021.04 1021.31 1021.54 1021.73
1012.56 1012.64 1012.69 1012.73 1012.76 1012.78 1012.81 1012.83 1012.83 1012.83 1012.82 1012.81 1012.80 1012.81 1012.83 1012.87 1012.92 1012.99 1013.07 1013.16 1013.29 1013.45 1013.67 1013.95 1014.31 1014.74 1015.23 1015.75 1016.27 1016.79 1017.27 1017.72 1018.13 1018.53 1018.92 1019.32 1019.71 1020.10 1020.47 1020.81 1021.11 1021.36 1021.56
1012.35 1012.43 1012.52 1012.60 1012.68 1012.74 1012.77 1012.75 1012.70 1012.61 1012.51 1012.40 1012.31 1012.25 1012.21 1012.20 1012.23 1012.27 1012.33 1012.41 1012.53 1012.70 1012.93 1013.24 1013.64 1014.10 1014.61 1015.16 1015.70 1016.22 1016.70 1017.15 1017.57 1017.97 1018.38 1018.80 1019.22 1019.65 1020.07 1020.45 1020.79 1021.07 1021.31
1012.17 1012.26 1012.38 1012.52 1012.66 1012.75 1012.78 1012.75 1012.64 1012.47 1012.26 1012.05 1011.86 1011.71 1011.60 1011.54 1011.51 1011.52 1011.56 1011.63 1011.74 1011.92 1012.16 1012.50 1012.92 1013.41 1013.95 1014.52 1015.07 1015.60 1016.08 1016.52 1016.93 1017.34 1017.75 1018.18 1018.63 1019.09 1019.54 1019.97 1020.35 1020.69 1020.97
1012.02 1012.12 1012.27 1012.45 1012.63 1012.76 1012.81 1012.75 1012.59 1012.34 1012.04 1011.73 1011.44 1011.20 1011.02 1010.90 1010.83 1010.80 1010.81 1010.87 1010.97 1011.14 1011.40 1011.75 1012.18 1012.70 1013.27 1013.85 1014.42 1014.95 1015.43 1015.86 1016.26 1016.66 1017.06 1017.49 1017.96 1018.44 1018.92 1019.39 1019.83 1020.22 1020.56
1011.90 1011.97 1012.13 1012.35 1012.56 1012.71 1012.77 1012.69 1012.49 1012.19 1011.81 1011.42 1011.05 1010.74 1010.50 1010.32 1010.21 1010.16 1010.14 1010.18 1010.26 1010.42 1010.67 1011.02 1011.46 1011.99 1012.56 1013.15 1013.73 1014.27 1014.75 1015.19 1015.58 1015.97 1016.37 1016.80 1017.26 1017.75 1018.26 1018.76 1019.23 1019.67 1020.06
1011.77 1011.81 1011.95 1012.17 1012.39 1012.56 1012.61 1012.53 1012.31 1011.96 1011.55 1011.11 1010.69 1010.33 1010.05 1009.85 1009.71 1009.63 1009.60 1009.61 1009.67 1009.80 1010.02 1010.35 1010.77 1011.28 1011.86 1012.45 1013.03 1013.58 1014.07 1014.51 1014.91 1015.30 1015.70 1016.12 1016.58 1017.07 1017.58 1018.09 1018.59 1019.06 1019.49
1011.64 1011.61 1011.71 1011.90 1012.10 1012.26 1012.32 1012.23 1012.00 1011.65 1011.22 1010.78 1010.35 1009.99 1009.71 1009.50 1009.36 1009.27 1009.21 1009.19 1009.22 1009.31 1009.49 1009.76 1010.14 1010.62 1011.16 1011.74 1012.32 1012.87 1013.38 1013.84 1014.26 1014.66 1015.06 1015.48 1015.93 1016.41 1016.91 1017.42 1017.92 1018.40 1018.85
1011.49 1011.38 1011.42 1011.55 1011.72 1011.85 1011.89 1011.81 1011.59 1011.26 1010.86 1010.44 1010.05 1009.72 1009.47 1009.29 1009.16 1009.07 1009.00 1008.95 1008.94 1008.97 1009.08 1009.28 1009.59 1010.01 1010.50 1011.05 1011.61 1012.16 1012.68 1013.17 1013.61 1014.04 1014.46 1014.88 1015.33 1015.79 1016.28 1016.76 1017.25 1017.71 1018.16
1011.35 1011.16 1011.11 1011.17 1011.28 1011.37 1011.39 1011.31 1011.11 1010.81 1010.46 1010.11 1009.78 1009.52 1009.33 1009.20 1009.10 1009.03 1008.96 1008.88 1008.82 1008.78 1008.81 1008.93 1009.15 1009.47 1009.90 1010.39 1010.92 1011.47 1012.00 1012.51 1012.99 1013.45 1013.89 1014.33 1014.77 1015.22 1015.68 1016.13 1016.58 1017.01 1017.43
1011.24 1010.96 1010.83 1010.81 1010.84 1010.88 1010.87 1010.78 1010.60 1010.35 1010.07 1009.79 1009.55 1009.37 1009.26 1009.19 1009.15 1009.10 1009.03 1008.94 1008.84 1008.74 1008.69 1008.71 1008.83 1009.05 1009.39 1009.81 1010.30 1010.82 1011.35 1011.89 1012.40 1012.89 1013.37 1013.83 1014.28 1014.71 1015.13 1015.54 1015.94 1016.33 1016.71
1011.17 1010.82 1010.61 1010.50 1010.46 1010.44 1010.39 1010.28 1010.12 1009.91 1009.68 1009.48 1009.33 1009.24 1009.21 1009.22 1009.24 1009.23 1009.19 1009.10 1008.96 1008.82 1008.70 1008.63 1008.65 1008.78 1009.01 1009.35 1009.78 1010.27 1010.79 1011.34 1011.88 1012.40 1012.91 1013.39 1013.85 1014.27 1014.66 1015.02 1015.37 1015.70 1016.02
1011.13 1010.74 1010.46 1010.28 1010.17 1010.08 1009.98 1009.85 1009.68 1009.50 1009.33 1009.19 1009.12 1009.11 1009.16 1009.24 1009.32 1009.37 1009.36 1009.29 1009.15 1008.99 1008.82 1008.68 1008.62 1008.66 1008.81 1009.07 1009.42 1009.86 1010.37 1010.91 1011.46 1012.02 1012.55 1013.05 1013.51 1013.92 1014.29 1014.60 1014.89 1015.15 1015.42
1011.09 1010.68 1010.37 1010.13 1009.95 1009.79 1009.64 1009.48 1009.30 1009.13 1008.98 1008.90 1008.88 1008.94 1009.05 1009.20 1009.34 1009.45 1009.49 1009.46 1009.35 1009.19 1009.01 1008.85 1008.74 1008.71 1008.78 1008.96 1009.26 1009.65 1010.11 1010.64 1011.20 1011.76 1012.31 1012.83 1013.29 1013.69 1014.03 1014.31 1014.53 1014.73 1014.93
1011.03 1010.61 1010.28 1010.00 1009.77 1009.56 1009.35 1009.15 1008.95 1008.77 1008.64 1008.57 1008.59 1008.69 1008.85 1009.05 1009.25 1009.42 1009.53 1009.55 1009.50 1009.39 1009.23 1009.07 1008.95 1008.89 1008.92 1009.05 1009.28 1009.62 1010.05 1010.55 1011.09 1011.66 1012.22 1012.74 1013.20 1013.59 1013.90 1014.14 1014.31 1014.45 1014.58
1010.86 1010.47 1010.13 1009.83 1009.56 1009.31 1009.06 1008.82 1008.59 1008.40 1008.26 1008.20 1008.23 1008.34 1008.53 1008.77 1009.02 1009.25 1009.42 1009.52 1009.55 1009.51 1009.41 1009.30 1009.20 1009.15 1009.16 1009.26 1009.46 1009.76 1010.15 1010.62 1011.14 1011.70 1012.25 1012.77 1013.23 1013.61 1013.89 1014.09 1014.22 1014.29 1014.36
1010.56 1010.19 1009.86 1009.56 1009.27 1008.99 1008.72 1008.45 1008.19 1007.98 1007.83 1007.76 1007.78 1007.90 1008.11 1008.36 1008.65 1008.92 1009.16 1009.34 1009.45 1009.50 1009.49 1009.46 1009.42 1009.40 1009.43 1009.52 1009.71 1009.98 1010.34 1010.79 1011.29 1011.83 1012.38 1012.89 1013.34 1013.71 1013.98 1014.14 1014.22 1014.25 1014.25
1010.10 1009.76 1009.44 1009.14 1008.85 1008.57 1008.28 1007.99 1007.73 1007.50 1007.34 1007.26 1007.28 1007.39 1007.59 1007.85 1008.15 1008.46 1008.75 1009.00 1009.20 1009.34 1009.43 1009.48 1009.51 1009.55 1009.62 1009.75 1009.93 1010.20 1010.55 1010.98 1011.47 1012.00 1012.53 1013.04 1013.49 1013.85 1014.10 1014.25 1014.30 1014.28 1014.23
1009.49 1009.16 1008.86 1008.58 1008.30 1008.02 1007.73 1007.45 1007.18 1006.96 1006.79 1006.71 1006.72 1006.82 1007.01 1007.27 1007.57 1007.90 1008.23 1008.53 1008.80 1009.01 1009.19 1009.33 1009.45 1009.56 1009.68 1009.84 1010.06 1010.34 1010.69 1011.11 1011.60 1012.12 1012.65 1013.16 1013.61 1013.98 1014.23 1014.38 1014.42 1014.37 1014.28
1008.77 1008.46 1008.17 1007.89 1007.63 1007.36 1007.09 1006.82 1006.57 1006.36 1006.21 1006.13 1006.13 1006.23 1006.41 1006.66 1006.96 1007.29 1007.64 1007.97 1008.28 1008.56 1008.80 1009.01 1009.20 1009.38 1009.57 1009.78 1010.02 1010.33 1010.69 1011.12 1011.61 1012.14 1012.68 1013.20 1013.67 1014.05 1014.33 1014.49 1014.54 1014.50 1014.40
1008.02 1007.70 1007.41 1007.15 1006.89 1006.64 1006.39 1006.14 1005.92 1005.74 1005.61 1005.55 1005.56 1005.66 1005.84 1006.08 1006.37 1006.69 1007.03 1007.37 1007.70 1008.01 1008.30 1008.57 1008.81 1009.05 1009.28 1009.54 1009.82 1010.15 1010.54 1010.99 1011.49 1012.03 1012.59 1013.14 1013.63 1014.05 1014.37 1014.58 1014.67 1014.66 1014.58
1007.29 1006.96 1006.67 1006.41 1006.15 1005.91 1005.68 1005.46 1005.27 1005.12 1005.02 1004.99 1005.03 1005.14 1005.32 1005.56 1005.84 1006.15 1006.48 1006.81 1007.14 1007.46 1007.76 1008.06 1008.33 1008.61 1008.88 1009.17 1009.49 1009.85 1010.26 1010.72 1011.24 1011.80 1012.38 1012.96 1013.50 1013.97 1014.35 1014.62 1014.78 1014.84 1014.82
1006.68 1006.33 1006.02 1005.74 1005.49 1005.25 1005.03 1004.83 1004.67 1004.55 1004.49 1004.49 1004.57 1004.70 1004.90 1005.14 1005.41 1005.71 1006.02 1006.34 1006.65 1006.96 1007.26 1007.56 1007.85 1008.14 1008.44 1008.75 1009.09 1009.47 1009.89 1010.37 1010.90 1011.48 1012.08 1012.69 1013.27 1013.80 1014.25 1014.61 1014.86 1015.01 1015.08
1006.20 1005.84 1005.51 1005.22 1004.95 1004.70 1004.48 1004.29 1004.15 1004.06 1004.04 1004.08 1004.19 1004.36 1004.57 1004.82 1005.10 1005.39 1005.69 1005.99 1006.28 1006.57 1006.86 1007.15 1007.43 1007.73 1008.03 1008.35 1008.69 1009.08 1009.50 1009.98 1010.52 1011.10 1011.72 1012.35 1012.97 1013.56 1014.08 1014.53 1014.88 1015.14 1015.32
1005.89 1005.51 1005.17 1004.85 1004.56 1004.30 1004.07 1003.88 1003.75 1003.68 1003.69 1003.77 1003.91 1004.11 1004.35 1004.62 1004.90 1005.19 1005.48 1005.76 1006.03 1006.30 1006.57 1006.85 1007.12 1007.41 1007.71 1008.02 1008.36 1008.74 1009.15 1009.62 1010.14 1010.71 1011.32 1011.96 1012.60 1013.23 1013.82 1014.35 1014.81 1015.18 1015.47
Thickness
5749 5747 5746 5745 5744 5741 5740 5737 5736 5736 5735 5734 5733 5733 5733 5733 5733 5733 5734 5736 5737 5737 5736 5736 5735 5736 5735 5735 5734 5732 5731 5731 5730 5729 5728 5728 5728 5727 5727 5726 5725 5724 5724
5742 5741 5740 5739 5738 5736 5735 5734 5733 5732 5732 5731 5731 5731 5732 5731 5731 5731 5731 5733 5735 5735 5735 5735 5734 5734 5734 5734 5733 5732 5731 5730 5730 5729 5728 5727 5727 5727 5726 5726 5725 5724 5724
5736 5735 5733 5732 5731 5730 5729 5729 5729 5728 5728 5727 5727 5728 5728 5728 5728 5728 5728 5729 5732 5733 5734 5733 5733 5733 5733 5733 5733 5732 5731 5730 5729 5729 5728 5727 5727 5726 5726 5725 5725 5724 5723
5729 5727 5726 5725 5725 5724 5724 5724 5723 5723 5723 5722 5723 5724 5725 5725 5726 5727 5726 5726 5728 5731 5732 5732 5732 5732 5732 5732 5732 5731 5731 5730 5729 5729 5728 5727 5726 5726 5726 5725 5725 5724 5723
5722 5720 5719 5718 5718 5718 5718 5719 5718 5718 5718 5718 5718 5720 5721 5721 5723 5725 5725 5725 5726 5729 5730 5731 5731 5731 5731 5731 5731 5731 5731 5730 5730 5729 5728 5727 5726 5725 5725 5725 5724 5724 5723
5714 5713 5713 5712 5712 5711 5711 5712 5712 5712 5712 5713 5714 5715 5716 5717 5719 5721 5722 5723 5724 5726 5727 5728 5729 5730 5731 5730 5730 5731 5731 5730 5730 5729 5728 5727 5726 5725 5724 5724 5724 5723 5723
5706 5705 5705 5705 5704 5703 5704 5705 5705 5705 5706 5707 5705 5705 5709 5712 5715 5718 5719 5720 5722 5724 5725 5727 5728 5729 5730 5730 5730 5730 5731 5730 5730 5729 5728 5727 5726 5725 5724 5723 5723 5723 5723
5697 5697 5697 5696 5696 5696 5696 5697 5696 5696 5698 5700 5698 5695 5695 5700 5709 5716 5717 5718 5720 5722 5723 5725 5726 5727 5728 5729 5730 5730 5730 5730 5730 5729 5728 5727 5727 5726 5724 5723 5723 5722 5722
5689 5689 5688 5687 5687 5688 5688 5688 5688 5688 5689 5692 5693 5691 5687 5689 5697 5706 5713 5717 5718 5719 5721 5723 5724 5726 5726 5729 5729 5730 5730 5731 5730 5730 5729 5728 5727 5726 5725 5723 5723 5722 5722
5680 5680 5679 5679 5679 5679 5679 5681 5681 5682 5682 5682 5685 5687 5689 5690 5688 5692 5701 5709 5713 5714 5717 5720 5723 5724 5726 5727 5729 5731 5731 5731 5731 5730 5729 5728 5727 5727 5726 5724 5723 5722 5721
5671 5671 5671 5670 5670 5671 5671 5672 5673 5675 5676 5675 5676 5679 5681 5683 5686 5685 5688 5695 5702 5708 5713 5717 5719 5722 5724 5726 5728 5729 5730 5731 5731 5730 5729 5729 5728 5727 5726 5725 5724 5723 5722
5661 5662 5662 5661 5661 5662 5662 5663 5665 5666 5667 5669 5670 5671 5672 5674 5677 5679 5681 5686 5690 5699 5706 5712 5715 5719 5721 5724 5726 5728 5729 5729 5729 5730 5729 5729 5728 5728 5726 5726 5725 5723 5722
5650 5651 5652 5652 5652 5653 5653 5654 5655 5656 5658 5660 5662 5663 5665 5667 5671 5673 5675 5678 5682 5690 5698 5705 5711 5715 5718 5721 5723 5725 5726 5727 5727 5727 5728 5728 5728 5727 5727 5726 5725 5724 5723
5643 5643 5643 5643 5643 5644 5645 5645 5645 5647 5649 5651 5653 5654 5656 5659 5662 5666 5668 5670 5673 5679 5687 5695 5704 5709 5713 5717 5720 5721 5722 5723 5724 5724 5725 5725 5726 5726 5725 5725 5724 5724 5723
5634 5634 5633 5633 5634 5634 5635 5635 5635 5636 5638 5641 5643 5645 5647 5650 5653 5656 5661 5663 5664 5667 5674 5686 5693 5702 5707 5711 5714 5715 5717 5719 5720 5721 5721 5722 5722 5723 5723 5723 5723 5722 5722
5624 5623 5623 5622 5622 5623 5624 5624 5625 5626 5627 5629 5632 5635 5638 5641 5643 5648 5651 5654 5658 5661 5665 5677 5685 5694 5699 5704 5707 5709 5712 5713 5714 5716 5716 5717 5718 5719 5720 5720 5720 5720 5720
5613 5611 5611 5610 5610 5610 5611 5612 5613 5615 5616 5618 5621 5624 5628 5631 5634 5638 5641 5644 5648 5653 5657 5667 5676 5683 5688 5693 5697 5700 5703 5705 5707 5709 5710 5711 5713 5714 5716 5716 5717 5717 5717
5603 5601 5599 5598 5598 5598 5599 5599 5600 5603 5605 5607 5610 5613 5616 5621 5623 5627 5630 5634 5639 5644 5649 5655 5664 5671 5677 5683 5687 5690 5693 5696 5698 5701 5703 5705 5707 5709 5711 5712 5713 5714 5714
5592 5590 5588 5586 5586 5586 5586 5587 5588 5590 5593 5596 5599 5601 5605 5608 5612 5616 5619 5623 5629 5635 5641 5647 5654 5661 5666 5672 5676 5679 5683 5686 5690 5693 5695 5697 5700 5702 5705 5707 5708 5709 5710
5582 5579 5577 5576 5575 5574 5574 5575 5576 5578 5580 5583 5587 5591 5594 5597 5601 5605 5609 5613 5618 5623 5629 5636 5643 5649 5655 5661 5666 5668 5671 5675 5679 5683 5686 5688 5691 5694 5697 5700 5702 5704 5705
5573 5570 5567 5565 5563 5563 5563 5563 5563 5565 5567 5569 5573 5578 5583 5587 5591 5595 5600 5603 5607 5612 5618 5624 5632 5638 5644 5649 5655 5660 5663 5665 5668 5672 5676 5679 5683 5686 5688 5691 5694 5697 5698
5563 5560 5557 5555 5553 5554 5554 5553 5552 5552 5554 5556 5559 5564 5569 5574 5580 5585 5590 5595 5599 5603 5607 5614 5621 5628 5635 5641 5646 5650 5654 5656 5659 5664 5668 5669 5674 5677 5680 5683 5686 5689 5692
5555 5552 5549 5546 5544 5544 5543 5542 5542 5541 5541 5543 5545 5549 5556 5563 5567 5571 5577 5584 5589 5595 5601 5606 5612 5619 5626 5633 5637 5640 5645 5649 5653 5659 5660 5660 5663 5667 5670 5673 5677 5681 5684
5548 5544 5541 5539 5536 5535 5534 5533 5532 5531 5530 5532 5534 5538 5542 5548 5554 5558 5563 5569 5575 5583 5591 5598 5605 5611 5617 5623 5630 5634 5637 5639 5644 5648 5653 5653 5654 5657 5660 5663 5667 5671 5675
5541 5537 5534 5531 5529 5528 5526 5524 5522 5520 5520 5521 5524 5528 5532 5536 5543 5548 5551 5556 5562 5569 5577 5586 5594 5600 5606 5613 5619 5622 5624 5628 5632 5637 5643 5646 5646 5647 5649 5653 5656 5660 5664
5536 5532 5529 5526 5523 5521 5519 5517 5515 5512 5512 5513 5515 5519 5524 5528 5532 5537 5541 5546 5550 5557 5565 5574 5581 5588 5594 5601 5608 5614 5618 5621 5625 5628 5634 5638 5638 5640 5640 5642 5646 5650 5653